CAPE
0 0 0 0 0 0 0 0 0 0 0 0 0 0 0 0 0 0 0 0 0 0 0 0 0 0 0 8 23 133 75 31 57 61 95 60 39 120 394 292 278 189 150 183 292
0 0 0 0 0 0 0 0 0 0 0 0 0 0 0 0 0 0 0 0 0 0 0 0 0 0 0 5 77 138 24 3 57 124 164 140 114 290 418 386 310 277 257 258 315
0 0 1 0 0 0 0 0 0 0 0 0 0 0 0 0 0 0 0 0 0 0 0 0 0 0 0 0 9 92 0 0 25 188 187 248 223 145 247 299 361 250 182 257 339
1 1 1 1 1 0 0 0 0 0 0 0 0 0 0 0 0 0 0 0 0 0 0 0 0 0 0 0 0 7 0 28 53 381 325 360 374 248 230 240 180 203 283 283 310
1 1 1 1 1 1 0 0 0 0 0 0 0 0 0 0 0 0 0 0 0 0 0 0 0 0 0 0 0 4 3 26 146 490 490 480 422 461 390 278 373 472 352 317 434
1 1 1 1 1 1 0 0 0 0 0 0 0 0 0 0 0 0 0 0 0 0 0 0 0 0 0 0 0 0 0 0 65 526 615 513 569 573 442 480 481 475 331 417 394
1 1 1 1 1 1 0 0 0 0 0 0 0 0 0 0 0 0 0 0 0 0 0 0 0 0 0 0 0 0 0 0 40 135 493 673 520 347 579 507 448 495 475 426 427
1 1 1 1 1 0 0 0 0 0 0 0 0 0 0 0 0 0 0 0 0 0 0 0 0 0 0 0 0 0 8 0 0 212 650 596 127 312 639 612 531 500 444 391 382
1 1 1 1 1 0 0 0 0 0 0 0 0 0 0 0 0 0 0 0 0 0 0 0 0 0 0 0 0 0 0 0 0 35 459 640 172 481 638 741 672 537 505 434 412
1 1 1 1 1 0 0 0 0 0 0 0 0 0 0 0 0 0 0 0 0 0 0 0 0 0 0 0 0 0 0 0 0 0 38 161 212 623 623 662 674 608 637 596 421
1 2 1 1 1 1 0 0 0 0 0 0 0 0 0 0 0 0 0 0 0 0 0 0 0 0 0 0 0 0 0 0 0 0 0 98 210 444 700 550 555 543 481 556 534
1 2 1 1 1 0 0 0 0 0 0 0 0 0 0 0 0 0 0 0 0 0 0 0 0 0 0 0 0 0 0 0 0 6 99 252 0 29 430 537 422 291 235 342 523
1 1 0 0 0 0 0 0 0 0 0 0 0 0 0 0 0 0 0 0 0 0 0 0 0 0 0 0 0 0 0 0 0 0 220 1 0 0 21 281 299 192 76 188 520
1 1 1 0 0 0 0 0 0 0 0 0 0 0 0 0 0 0 0 0 0 0 0 0 0 0 0 0 0 0 0 0 0 0 0 0 0 0 0 3 135 157 65 87 242
2 1 1 0 0 0 0 0 0 0 0 0 0 0 0 0 0 0 0 0 0 0 0 0 0 0 0 0 0 0 0 0 0 0 0 0 0 0 0 0 0 213 174 125 154
2 1 0 0 0 0 0 0 0 0 0 0 0 0 0 0 0 0 0 0 0 0 0 0 0 0 0 0 0 0 0 0 0 0 0 0 0 0 0 0 11 4 238 150 178
0 0 0 0 0 0 0 0 0 0 0 0 0 0 0 0 0 0 0 0 0 0 0 0 0 0 0 0 0 0 0 0 0 0 0 0 0 0 0 0 11 30 7 238 170
0 0 0 0 0 0 0 0 0 0 0 0 0 0 0 0 0 0 0 0 0 0 0 0 0 0 0 0 0 0 0 0 0 0 0 0 0 0 0 0 45 119 24 18 359
0 0 0 0 0 0 0 0 0 0 0 0 0 0 0 0 0 0 0 0 0 0 0 0 0 0 0 0 0 0 0 0 0 0 0 0 0 0 3 8 3 13 104 78 3
0 0 0 0 0 0 0 0 0 0 0 0 0 0 0 0 0 0 0 0 0 0 0 0 0 0 0 0 0 0 0 0 0 0 0 0 0 0 0 6 55 19 9 6 80
0 0 0 0 0 0 0 0 0 0 0 0 0 0 0 0 0 0 0 0 0 0 0 0 0 0 0 0 0 0 0 0 0 0 0 0 0 8 16 53 71 74 103 126 42
0 0 0 0 0 0 0 0 0 0 0 0 0 0 0 0 0 0 0 0 0 0 0 0 0 0 0 0 0 0 0 0 0 0 0 0 0 6 23 33 24 68 110 112 235
0 0 0 0 0 0 0 0 0 0 0 0 0 0 0 0 0 0 0 0 0 0 0 0 0 0 0 0 0 0 0 0 0 0 0 0 0 0 50 48 47 7 45 84 193
0 0 0 0 0 0 0 0 0 0 0 0 0 0 0 0 0 0 0 0 0 0 0 0 0 0 0 0 0 0 0 0 0 0 0 0 0 0 0 4 74 0 12 36 50
0 0 0 0 0 0 0 0 0 0 0 0 0 0 0 0 0 0 0 0 0 0 0 0 0 0 0 0 0 0 0 0 0 0 0 0 0 0 0 0 1 0 0 0 0
0 0 0 0 0 0 0 0 0 0 0 0 0 0 0 0 0 0 0 0 0 0 0 0 0 0 0 0 0 0 0 0 0 0 0 0 0 0 0 0 0 0 0 0 0
0 0 0 0 0 0 0 0 0 0 0 0 0 0 0 0 0 0 0 0 0 0 0 0 0 0 0 0 0 0 0 0 0 0 0 0 2 0 0 0 0 0 0 0 0
CIN
-0 -0 -0 -0 -0 -0 -0 -0 -0 -0 -0 -0 -0 -0 -0 -0 -0 -0 -0 -0 -0 -0 -0 -0 -0 -0 -0 -131 -166 -138 -30 -18 -16 -22 -18 -56 -45 -63 -52 -59 -84 -98 -81 -108 -150
-0 -0 -0 -0 -0 -0 -0 -0 -0 -0 -0 -0 -0 -0 -0 -0 -0 -0 -0 -0 -0 -0 -0 -0 -0 -0 -0 -35 -109 -76 -56 -16 -35 -26 -23 -41 -35 -36 -28 -49 -64 -79 -136 -159 -121
-0 -0 -0 -0 -0 -0 -0 -0 -0 -0 -0 -0 -0 -0 -0 -0 -0 -0 -0 -0 -0 -0 -0 -0 -0 -0 -0 -0 -81 -95 -0 -0 -54 -38 -53 -41 -55 -52 -35 -38 -26 -23 -86 -147 -99
-0 -0 -0 -0 -0 -0 -0 -0 -0 -0 -0 -0 -0 -0 -0 -0 -0 -0 -0 -0 -0 -0 -0 -0 -0 -0 -0 -0 -0 -119 -0 -119 -70 -49 -59 -55 -56 -62 -55 -24 -43 -48 -101 -142 -95
-0 -0 -0 -0 -0 -0 -0 -0 -0 -0 -0 -0 -0 -0 -0 -0 -0 -0 -0 -0 -0 -0 -0 -0 -0 -0 -0 -0 -0 -132 -74 -103 -90 -82 -80 -92 -71 -57 -60 -62 -67 -82 -118 -109 -59
-0 -0 -0 -0 -0 -0 -0 -0 -0 -0 -0 -0 -0 -0 -0 -0 -0 -0 -0 -0 -0 -0 -0 -0 -0 -0 -0 -0 -0 -0 -0 -0 -115 -83 -97 -94 -92 -84 -79 -100 -82 -98 -90 -89 -61
-0 -0 -0 -0 -0 -0 -0 -0 -0 -0 -0 -0 -0 -0 -0 -0 -0 -0 -0 -0 -0 -0 -0 -0 -0 -0 -0 -0 -0 -0 -9 -5 -124 -131 -108 -118 -111 -82 -118 -108 -81 -70 -75 -85 -73
-0 -0 -0 -0 -0 -0 -0 -0 -0 -0 -0 -0 -0 -0 -0 -0 -0 -0 -0 -0 -0 -0 -0 -0 -0 -0 -0 -0 -0 -0 -113 -0 -0 -123 -115 -114 -36 -100 -153 -117 -66 -63 -71 -93 -73
-0 -0 -0 -0 -0 -0 -0 -0 -0 -0 -0 -0 -0 -0 -0 -0 -0 -0 -0 -0 -0 -0 -0 -0 -0 -0 -0 -0 -0 -0 -0 -0 -0 -93 -128 -118 -71 -134 -170 -127 -72 -60 -55 -84 -70
-0 -0 -0 -0 -0 -0 -0 -0 -0 -0 -0 -0 -0 -0 -0 -0 -0 -0 -0 -0 -0 -0 -0 -0 -0 -0 -0 -0 -0 -0 -0 -0 -0 -0 -48 -145 -124 -143 -198 -159 -103 -69 -50 -62 -74
-0 -0 -0 -0 -0 -0 -0 -0 -0 -0 -0 -0 -0 -0 -0 -0 -0 -0 -0 -0 -0 -0 -0 -0 -0 -0 -0 -0 -0 -0 -0 -0 -0 -0 -0 -146 -152 -154 -226 -238 -161 -113 -78 -49 -70
-0 -0 -0 -0 -0 -0 -0 -0 -0 -0 -0 -0 -0 -0 -0 -0 -0 -0 -0 -0 -0 -0 -0 -0 -0 -0 -0 -0 -0 -0 -0 -0 -0 -118 -193 -131 -30 -162 -258 -243 -207 -152 -120 -94 -67
-0 -0 -0 -0 -0 -0 -0 -0 -0 -0 -0 -0 -0 -0 -0 -0 -0 -0 -0 -0 -0 -0 -0 -0 -0 -0 -0 -0 -0 -0 -0 -0 -0 -0 -218 -63 -0 -0 -186 -338 -312 -234 -198 -134 -82
-0 -0 -0 -0 -0 -0 -0 -0 -0 -0 -0 -0 -0 -0 -0 -0 -0 -0 -0 -0 -0 -0 -0 -0 -0 -0 -0 -0 -0 -0 -0 -0 -0 -0 -0 -0 -0 -0 -0 -118 -268 -241 -248 -178 -137
-0 -0 -0 -0 -0 -0 -0 -0 -0 -0 -0 -0 -0 -0 -0 -0 -0 -0 -0 -0 -0 -0 -0 -0 -0 -0 -0 -0 -0 -0 -0 -0 -0 -0 -0 -0 -0 -0 -0 -0 -0 -193 -221 -209 -192
-0 -0 -0 -0 -0 -0 -0 -0 -0 -0 -0 -0 -0 -0 -0 -0 -0 -0 -0 -0 -0 -0 -0 -0 -0 -0 -0 -0 -0 -0 -0 -0 -0 -0 -0 -0 -0 -0 -0 -0 -160 -229 -213 -243 -203
-0 -0 -0 -0 -0 -0 -0 -0 -0 -0 -0 -0 -0 -0 -0 -0 -0 -0 -0 -0 -0 -0 -0 -0 -0 -0 -0 -0 -0 -0 -0 -0 -0 -0 -0 -0 -0 -0 -0 -82 -202 -209 -254 -211 -239
-0 -0 -0 -0 -0 -0 -0 -0 -0 -0 -0 -0 -0 -0 -0 -0 -0 -0 -0 -0 -0 -0 -0 -0 -0 -0 -0 -0 -0 -0 -0 -0 -0 -0 -0 -0 -0 -0 -0 -21 -306 -213 -270 -283 -216
-0 -0 -0 -0 -0 -0 -0 -0 -0 -0 -0 -0 -0 -0 -0 -0 -0 -0 -0 -0 -0 -0 -0 -0 -0 -0 -0 -0 -0 -0 -0 -0 -0 -0 -0 -0 -0 -0 -36 -121 -95 -247 -210 -224 -299
-0 -0 -0 -0 -0 -0 -0 -0 -0 -0 -0 -0 -0 -0 -0 -0 -0 -0 -0 -0 -0 -0 -0 -0 -0 -0 -0 -0 -0 -0 -0 -0 -0 -0 -0 -0 -0 -0 -0 -152 -289 -276 -320 -312 -313
-0 -0 -0 -0 -0 -0 -0 -0 -0 -0 -0 -0 -0 -0 -0 -0 -0 -0 -0 -0 -0 -0 -0 -0 -0 -0 -0 -0 -0 -0 -0 -0 -0 -0 -0 -0 -0 -210 -287 -382 -361 -405 -466 -461 -437
-0 -0 -0 -0 -0 -0 -0 -0 -0 -0 -0 -0 -0 -0 -0 -0 -0 -0 -0 -0 -0 -0 -0 -0 -0 -0 -0 -0 -0 -0 -0 -0 -0 -0 -0 -0 -0 -377 -418 -467 -554 -512 -558 -586 -557
-0 -0 -0 -0 -0 -0 -0 -0 -0 -0 -0 -0 -0 -0 -0 -0 -0 -0 -0 -0 -0 -0 -0 -0 -0 -0 -0 -0 -0 -0 -0 -0 -0 -0 -0 -0 -0 -0 -390 -398 -454 -522 -558 -595 -588
-0 -0 -0 -0 -0 -0 -0 -0 -0 -0 -0 -0 -0 -0 -0 -0 -0 -0 -0 -0 -0 -0 -0 -0 -0 -0 -0 -0 -0 -0 -0 -0 -0 -0 -0 -0 -0 -0 -0 -206 -426 -0 -526 -547 -584
-0 -0 -0 -0 -0 -0 -0 -0 -0 -0 -0 -0 -0 -0 -0 -0 -0 -0 -0 -0 -0 -0 -0 -0 -0 -0 -0 -0 -0 -0 -0 -0 -0 -0 -0 -0 -0 -0 -0 -0 -95 -0 -0 -0 -0
-0 -0 -0 -0 -0 -0 -0 -0 -0 -0 -0 -0 -0 -0 -0 -0 -0 -0 -0 -0 -0 -0 -0 -0 -0 -0 -0 -0 -0 -0 -0 -0 -0 -0 -0 -0 -1 -0 -0 -0 -0 -0 -0 -0 -0
-0 -0 -0 -0 -0 -0 -0 -0 -0 -0 -0 -0 -0 -0 -0 -0 -0 -0 -0 -0 -0 -0 -0 -0 -0 -0 -0 -0 -0 -0 -0 -0 -0 -0 -0 -0 -24 -0 -0 -0 -0 -0 -0 -0 -0
Wind_Speed
21 20 19 20 20 19 18 18 18 19 19 20 20 21 21 20 20 17 20 12 12 17 16 15 16 17 17 9 18 18 19 19 19 19 20 17 14 14 13 10 10 11 13 15 13
23 23 22 21 21 20 19 19 18 18 19 19 20 20 20 19 20 21 20 18 18 17 15 16 16 16 17 17 17 17 18 18 19 15 21 19 14 12 11 11 14 12 15 11 12
25 24 23 22 21 21 20 19 19 19 19 19 20 20 20 19 15 9 15 17 15 16 14 16 16 15 16 16 16 17 19 20 20 12 14 19 15 13 13 14 13 11 9 9 11
25 24 23 22 22 21 20 20 19 19 19 19 20 19 20 12 7 10 17 15 16 15 13 14 13 15 16 17 16 16 18 19 15 14 15 17 16 13 9 18 15 12 7 8 10
24 24 23 22 21 21 20 20 19 19 19 19 19 19 11 7 8 17 16 9 12 13 15 12 13 14 16 17 18 15 22 23 4 11 12 16 12 13 13 13 13 9 6 8 10
22 21 22 21 21 20 20 20 19 19 19 19 19 19 10 8 14 16 10 10 10 11 15 15 11 13 13 15 15 18 21 21 20 18 16 16 18 16 16 14 10 7 6 8 10
21 21 20 20 20 20 19 20 20 19 19 19 19 16 5 23 11 14 10 9 7 7 8 16 11 12 12 12 14 11 20 22 22 21 19 16 17 11 14 10 11 7 6 9 12
23 21 19 19 19 19 19 20 20 19 19 19 18 13 22 22 20 22 19 15 19 22 20 5 11 12 12 10 11 17 17 21 21 21 20 17 19 16 11 10 9 7 4 6 13
24 21 19 19 19 19 19 19 19 19 17 15 15 15 21 21 26 23 22 18 14 21 19 8 11 13 13 12 11 17 20 18 18 22 19 11 12 17 12 8 8 7 2 4 17
26 23 20 18 20 19 18 18 13 12 13 15 16 17 21 19 23 16 23 7 11 8 9 12 15 15 14 13 12 12 19 18 19 20 4 9 8 5 9 8 6 8 8 12 24
27 24 20 19 19 18 14 9 11 17 21 19 9 18 13 17 17 15 10 6 17 12 9 4 18 20 18 14 12 11 10 13 16 11 7 11 9 6 7 8 8 9 15 27 29
28 24 22 19 16 12 12 15 15 14 16 19 22 21 20 17 13 11 7 23 23 17 14 19 22 20 18 16 13 10 8 8 9 6 6 11 12 19 14 11 11 11 12 23 31
28 25 22 15 10 11 16 17 9 13 14 14 15 19 19 9 22 25 17 15 15 16 22 21 20 15 18 17 14 11 10 9 10 9 19 13 9 25 23 14 13 15 18 21 20
27 24 19 13 10 9 17 17 20 16 12 12 13 12 10 14 11 19 18 12 15 21 18 21 20 19 18 17 15 13 12 10 10 11 11 16 9 21 7 13 16 16 18 19 24
27 22 14 11 11 7 13 18 16 13 12 10 11 12 11 11 10 12 26 17 22 11 11 12 18 17 16 15 15 15 13 13 12 11 9 19 21 25 1 25 19 16 18 19 23
27 16 10 10 11 13 15 8 10 13 12 10 9 7 5 9 9 8 9 11 14 5 18 22 8 17 14 12 15 18 19 17 14 9 11 18 15 23 24 8 3 16 16 19 21
25 10 9 9 10 12 9 8 12 14 10 7 9 4 5 8 8 11 15 15 10 9 8 17 16 9 10 12 2 15 17 15 14 13 15 16 17 19 24 11 10 13 16 17 18
21 11 8 10 12 11 8 10 14 11 11 9 8 4 4 7 8 9 14 16 16 13 17 16 10 10 14 13 16 15 17 14 14 16 18 16 18 21 24 23 22 21 21 17 15
14 12 11 13 7 11 9 14 14 12 13 11 5 4 5 6 9 8 9 13 11 16 7 12 14 12 9 16 12 12 13 14 13 16 16 18 16 11 22 24 22 22 21 21 15
14 11 10 13 5 10 12 14 13 14 14 10 8 8 5 7 7 7 8 11 12 9 20 14 21 14 13 15 15 14 11 10 13 10 8 14 20 21 22 23 23 21 22 22 19
13 11 14 11 9 10 14 15 16 16 14 11 10 9 8 10 8 10 11 12 17 14 7 8 17 14 19 12 11 11 10 14 14 14 6 6 12 21 23 23 24 23 23 23 23
14 12 13 12 11 13 15 17 17 16 13 12 11 10 10 11 11 13 13 14 19 13 10 7 15 24 15 16 16 14 12 11 2 5 11 13 14 17 21 24 26 26 25 23 23
13 11 11 16 14 15 16 18 17 16 13 13 12 13 12 13 15 14 13 14 17 14 13 8 9 22 15 13 14 15 16 14 14 13 8 10 19 17 24 25 27 29 27 25 25
14 11 12 14 14 13 16 17 18 16 14 14 13 14 14 16 17 16 16 17 19 16 17 14 14 18 13 20 18 15 16 15 14 12 13 13 21 21 30 30 30 30 28 26 27
15 13 13 12 15 16 16 18 19 18 16 16 16 16 18 19 18 19 19 22 22 23 21 21 25 24 26 24 22 21 22 20 16 19 19 24 21 25 28 30 30 29 28 28 28
15 15 16 15 16 14 15 17 18 18 19 19 17 18 19 20 20 21 22 23 23 21 21 20 24 21 22 20 21 20 22 19 20 20 21 22 21 25 27 27 28 28 30 30 30
17 16 17 17 16 15 16 16 18 19 18 17 17 18 19 20 22 23 22 21 22 21 20 19 18 20 24 21 20 22 22 22 21 20 21 22 23 27 29 30 32 31 28 30 32
Wind_Direction
311 304 294 296 299 289 269 260 265 266 265 259 255 251 253 255 247 272 192 136 84 104 86 63 67 84 92 359 70 48 57 15 359 16 6 349 331 329 341 351 15 13 359 358 73
323 322 315 310 302 292 288 276 260 250 246 243 240 242 246 252 243 198 185 152 147 104 86 89 74 83 52 35 36 28 0 327 357 61 350 351 355 345 337 345 327 351 339 33 79
326 324 321 319 304 290 288 288 275 268 263 256 250 250 250 252 289 354 279 138 110 111 78 96 98 47 7 10 27 19 1 352 340 90 62 21 32 346 338 328 329 350 21 56 91
324 322 317 315 302 288 290 290 283 272 264 260 256 260 254 313 7 322 270 121 124 113 82 82 42 16 353 345 20 14 31 16 33 61 45 25 31 37 31 314 327 342 27 68 96
308 308 305 304 298 282 288 284 280 278 270 266 258 255 299 341 346 265 284 58 104 106 118 72 55 37 342 347 307 54 349 330 169 64 57 31 48 30 23 357 335 7 42 64 91
298 290 288 285 282 272 271 271 270 270 265 257 249 252 311 115 291 276 330 75 94 93 118 120 53 41 51 40 36 4 359 290 354 23 20 22 8 6 359 19 20 43 53 67 91
296 290 277 265 260 256 248 252 255 258 250 242 246 271 19 172 296 276 307 288 67 60 9 137 74 98 70 73 39 82 341 330 356 4 9 29 11 49 23 29 39 52 65 92 107
299 289 272 256 252 245 241 235 234 239 238 235 248 295 199 230 249 230 237 254 235 207 232 15 56 101 105 128 58 18 7 322 344 11 8 27 330 23 42 54 51 52 70 94 120
303 290 273 255 248 241 245 235 234 240 246 260 282 280 234 234 204 196 153 237 233 202 227 247 87 103 102 86 63 2 315 285 302 352 24 73 250 25 42 73 71 59 34 105 147
305 293 276 250 252 241 245 242 270 291 291 278 275 258 228 237 222 243 160 312 285 16 41 98 127 138 133 155 162 215 282 277 278 301 217 224 236 96 65 73 82 108 109 147 174
308 297 281 262 261 253 262 323 298 257 214 159 215 229 268 242 247 250 280 62 250 291 75 300 160 176 184 168 158 172 184 242 268 245 214 254 246 232 103 110 109 126 156 186 189
309 301 297 278 292 291 281 267 258 274 261 201 204 213 217 246 252 266 85 211 199 139 127 173 184 197 183 171 162 169 188 221 219 147 192 272 278 315 87 125 129 138 151 176 197
310 304 312 356 16 287 257 244 301 302 293 284 256 226 225 103 219 155 129 252 268 217 192 180 168 154 188 195 183 170 162 194 239 242 52 290 31 9 55 88 108 155 168 155 154
308 309 335 33 9 307 256 252 241 270 285 282 264 271 296 250 280 241 132 269 268 164 153 196 181 178 176 184 164 191 130 197 238 254 265 308 263 23 93 94 96 124 137 140 160
310 324 2 71 349 351 276 251 263 281 288 293 271 264 260 273 42 261 212 254 165 103 87 142 155 150 163 164 151 197 202 227 224 219 208 343 10 348 198 53 78 115 139 146 158
306 347 35 25 335 284 268 279 282 287 285 293 288 291 2 300 327 28 70 268 266 71 167 197 155 178 161 135 179 220 233 224 277 181 140 54 4 341 343 296 228 97 134 145 152
305 41 72 7 333 288 264 278 284 274 300 324 294 350 19 40 3 70 99 112 74 35 67 213 169 107 126 185 24 173 185 183 162 102 26 48 62 22 338 309 113 100 97 141 148
335 47 330 320 298 276 273 286 268 288 294 315 314 50 356 48 358 49 94 121 139 119 273 281 334 35 71 119 222 98 164 111 24 356 307 71 332 353 346 351 343 350 47 79 129
8 342 302 289 323 269 278 271 273 287 297 290 340 321 306 316 329 343 88 139 112 146 4 329 304 320 25 246 167 1 70 312 19 3 8 349 4 112 322 342 341 351 360 26 76
347 332 307 285 332 280 273 271 282 298 287 286 292 305 305 320 330 349 28 355 336 134 168 314 260 322 323 331 317 311 29 5 7 113 125 25 321 298 302 312 323 329 341 350 13
346 330 285 281 285 290 267 270 279 290 282 282 288 302 309 317 321 322 329 324 306 313 84 353 302 304 303 352 359 6 16 349 1 355 84 69 21 327 320 312 316 317 317 319 322
321 322 272 277 288 283 274 271 283 288 285 283 288 296 304 314 316 316 318 312 303 318 336 352 315 265 316 327 325 344 348 351 61 39 4 358 352 350 343 335 332 324 318 313 311
318 326 285 273 283 275 275 270 273 286 283 284 290 295 305 306 306 310 315 319 315 325 328 348 340 291 324 337 337 331 332 340 343 345 352 350 333 333 328 331 333 333 327 323 315
306 319 301 285 283 283 276 269 265 284 282 284 288 289 295 301 306 306 306 304 304 311 315 316 315 305 305 314 325 327 327 327 327 330 330 324 323 324 313 313 318 322 327 326 323
304 314 299 299 281 280 280 270 265 269 278 280 281 287 289 296 302 303 302 293 295 294 300 301 294 296 296 302 307 311 313 318 319 320 318 320 322 322 321 320 319 322 325 324 324
304 300 292 291 284 281 278 270 268 268 273 278 285 290 296 297 299 300 300 298 294 300 300 305 295 300 300 308 312 315 319 321 321 320 320 321 321 327 326 326 324 324 321 319 320
319 306 287 284 283 281 274 277 274 271 279 287 291 297 297 300 299 299 301 303 301 302 306 309 306 302 300 309 316 312 315 320 321 325 324 320 324 326 324 322 320 320 321 321 318